Flag for Germany Weather past 2 weeks in Rheinberg, North Rhine-Westphalia, Germany

Now
59 °F

Fog.


Feels Like: 59 °F
Forecast: 62 / 78 °F
Wind: 1 mph from Northeast

Location: Duesseldorf

Current Time: Jul 26, 2014 at 7:49:20 AM

Latest Report: Jul 26, 2014 at 7:00 AM


Visibility: 0 mi

Pressure: 29.93 "Hg

Humidity: 97%

Dew point: 58 °F

Location of RheinbergLocation

Historic Weather in Rheinberg — Graph

°F

Rheinberg temperature yesterday

Maximum temperature yesterday: 71 °F (at 4:00 PM)
Minimum temperature yesterday: 63 °F (at 6:00 AM)
Average temperature yesterday: 66 °F

Past Weeks' High & Low Weather Summary

 TemperatureHumidityPressure
High93 °F (Jul 19, 5:00 PM)96% (Jul 16, 6:00 AM)30.19 "Hg (Jul 16, 6:00 AM)
Low53 °F (Jul 15, 3:00 AM)25% (Jul 19, 3:00 PM)29.73 "Hg (Jul 13, 7:00 PM)
Average70 °F72%29.97 "Hg
* Reported Jul 11 6:00 AM — Jul 26 6:00 AM, Rheinberg, Weather by CustomWeather, © 2014

Note: Actual official high and low records may vary slightly from our data, if they occured in-between our weather recording intervals... More about our weather records

Advertising

Rheinberg weather history for previous 24 hours

 ConditionsComfort  
Time TempWeatherWind HumidityBarometerVisibility
6:00 AM
Jul 26
56 °FFog.1 mph95%29.92 "Hg0 mi
5:00 AM58 °FFog.1 mph95%29.91 "Hg2 mi
4:00 AM59 °FFog.1 mph95%29.92 "Hg2 mi
3:00 AM61 °FFog.2 mph94%29.93 "Hg4 mi
2:00 AM61 °FPassing clouds.1 mph92%29.92 "Hg6 mi
1:00 AM62 °FPassing clouds.1 mph90%29.92 "Hg9 mi
12:00 AM63 °FPassing clouds.2 mph87%29.93 "Hg12 mi
11:00 PM
Jul 25
64 °FPassing clouds.2 mph85%29.92 "Hg14 mi
10:00 PM66 °FPassing clouds.2 mph81%29.92 "Hg12 mi
9:00 PM68 °FScattered clouds.3 mph76%29.91 "Hg12 mi
8:00 PM69 °FScattered clouds.3 mph71%29.91 "Hg16 mi
7:00 PM70 °FPartly sunny.5 mph70%29.91 "Hg16 mi
6:00 PM71 °FScattered clouds.5 mph69%29.91 "Hg16 mi
5:00 PM71 °FScattered clouds.6 mph68%29.93 "Hg12 mi
4:00 PM71 °FPartly sunny.6 mph68%29.93 "Hg12 mi
3:00 PM68 °FPartly sunny.6 mph73%29.95 "Hg12 mi
2:00 PM67 °FPartly sunny.5 mph75%29.96 "Hg12 mi
1:00 PM66 °FPartly sunny.3 mph76%29.96 "Hg9 mi
12:00 PM66 °FOvercast.5 mph77%29.98 "Hg9 mi
11:00 AM66 °FOvercast.5 mph76%29.98 "Hg12 mi
10:00 AM66 °FOvercast.3 mph76%29.98 "Hg12 mi
9:00 AM65 °FOvercast.3 mph78%29.98 "Hg12 mi
8:00 AM64 °FOvercast.5 mph80%29.97 "Hg12 mi
7:00 AM63 °FOvercast.5 mph81%29.97 "Hg16 mi
Weather by CustomWeather, © 2014

See weather overviewHow to use our weather pages